User: anonymous   Login
Location: Unspecified
(0.0000°N, 0.0000°E)
Time: 21:25:33
(UTC+00:00)
Language:

LES 1 - Orbit

View from above orbital plane
View from above orbital plane
View from above satellite
View from above satellite

Ground track
Ground track

The orbit data is extracted from the following two-line orbital elements,

1 01002U 65008C   21124.43827947 -.00000002  00000-0 -13964-2 0  9995
2 01002  32.1387 154.0555 0015126 356.8258   3.2142  9.88353882 31208
Epoch (UTC): 04 May 2021 10:31:07
Eccentricity: 0.0015126
inclination: 32.1387°
perigee height: 2780 km
apogee height: 2807 km
right ascension of ascending node: 154.0555°
argument of perigee: 356.8258°
revolutions per day: 9.88353882
mean anomaly at epoch: 3.2142°
orbit number at epoch: 3120

The dashed part of the orbit path shows where the satellite is in the earth's shadow,  

DLR